Wind_Speed
16 16 16 16 16 15 13 12 11 11 12 13 14 14 14 15 16 15 13 11 10 10 9 8 8 8 8 9 10 10 11 11 11 11 12 12 12 11 11 11 10 9 8 8 8 8 8 8 9 11 12 13 13 13 14 14 14 15 16 17 18 19 21 22 23 23 24 24 24 25 25 24 24 24 22 21 20 20 21 23 23 22 20 20 17
16 16 16 16 15 14 13 13 12 12 12 13 14 14 13 15 17 15 12 10 9 9 8 7 7 7 8 9 9 9 10 10 10 10 10 10 10 10 10 10 10 8 8 7 7 7 7 8 9 11 12 13 13 13 13 14 14 16 16 18 19 20 22 22 23 23 24 24 24 24 24 24 23 23 22 20 20 20 21 22 22 22 20 19 17
15 16 16 16 15 14 13 13 13 12 13 13 14 14 14 15 16 14 12 10 9 9 8 7 6 6 7 8 8 9 9 9 10 10 9 9 9 9 9 9 9 8 7 6 6 6 6 8 9 11 12 13 14 14 14 15 15 16 17 18 19 20 21 22 22 23 24 24 24 24 24 23 23 22 21 21 21 20 21 21 21 21 20 20 18
15 15 15 15 15 14 13 13 13 13 14 14 15 15 15 15 14 13 11 10 10 9 8 7 6 7 7 7 8 8 8 8 9 9 8 7 7 8 7 7 7 7 7 6 6 5 6 7 9 10 12 13 14 15 16 16 16 17 17 18 19 20 21 21 22 23 23 23 24 24 23 23 22 21 21 21 21 21 22 22 21 20 20 20 19
15 15 14 14 14 14 13 14 14 14 15 16 16 17 16 14 13 11 10 9 9 8 7 7 7 8 7 7 7 8 8 7 8 8 7 6 6 6 6 6 6 6 6 6 5 5 6 7 9 11 12 14 15 16 16 17 17 17 18 19 19 20 20 20 21 22 23 23 23 23 23 23 22 21 21 22 23 23 23 22 21 20 20 20 20
15 14 15 15 15 15 15 15 16 15 16 17 17 17 15 13 11 10 9 8 8 7 6 7 7 8 8 8 7 8 8 7 7 7 6 5 4 5 6 6 5 5 5 5 5 6 7 9 10 12 14 15 16 17 17 17 17 18 18 19 19 20 20 20 21 23 23 23 22 22 23 23 22 21 22 23 24 24 24 24 22 21 21 21 21
16 16 17 18 18 18 18 18 17 17 16 16 16 15 14 12 10 10 9 9 8 7 7 7 7 7 7 8 8 7 8 7 6 7 6 4 4 5 5 5 5 4 5 5 6 7 8 9 11 12 14 15 16 16 17 17 17 18 18 19 19 19 20 20 21 23 23 22 21 22 23 23 22 22 23 24 25 25 26 25 23 22 22 22 22
20 20 21 21 21 20 19 19 18 17 16 15 14 14 13 11 10 10 10 9 9 9 7 6 6 6 6 7 7 7 8 8 7 6 6 4 3 4 5 5 4 4 5 5 6 7 8 9 10 12 13 14 15 15 16 17 17 18 18 19 19 19 19 20 21 22 22 21 21 22 23 23 23 23 24 25 26 26 26 26 24 23 22 23 23
23 23 23 22 21 20 19 18 17 16 15 14 13 13 12 11 10 10 10 9 10 10 8 7 6 5 5 6 5 6 8 7 6 6 6 4 3 3 5 5 4 4 5 6 7 8 8 9 10 11 12 14 14 15 16 16 17 18 18 18 18 18 19 20 21 21 21 21 22 22 23 23 23 24 25 26 26 26 26 25 25 24 23 23 23
23 23 22 21 19 18 17 16 15 14 13 12 12 11 11 11 9 8 8 8 9 10 9 9 8 6 5 4 4 5 7 7 6 5 5 5 3 3 4 5 4 4 4 5 6 8 8 9 10 10 12 13 14 14 15 16 17 17 18 17 17 17 18 19 20 21 20 21 22 23 23 23 24 25 26 26 26 26 25 25 25 24 24 23 23
22 21 19 18 17 16 15 14 13 12 11 11 10 10 11 11 9 8 8 8 9 10 10 10 9 8 6 5 5 6 6 7 7 6 6 5 4 4 4 4 4 4 4 4 5 7 8 9 9 10 11 12 13 14 14 15 16 16 16 16 16 16 17 18 19 19 20 21 22 22 23 23 24 25 26 26 26 25 25 24 24 25 24 24 24
19 18 17 16 15 14 13 12 12 10 10 10 9 9 10 11 11 9 9 9 10 11 11 11 10 10 8 7 7 8 7 7 7 6 7 6 5 5 4 4 4 4 3 4 4 5 7 8 9 9 10 11 12 13 13 14 15 15 15 15 15 15 16 17 18 19 19 20 21 22 22 23 24 25 26 26 26 25 24 24 24 24 25 25 25
17 16 15 14 13 12 11 11 11 10 10 9 9 8 9 10 11 11 9 10 11 12 11 11 11 10 9 8 9 9 8 8 7 7 8 7 6 5 4 3 4 3 3 3 3 4 6 7 8 9 9 10 11 13 13 13 14 14 14 14 14 14 15 17 18 18 19 19 20 21 22 23 24 25 26 26 26 25 25 24 24 24 25 26 26
15 14 13 12 11 10 9 9 9 9 9 9 9 9 9 10 11 11 9 9 11 12 12 11 11 11 10 9 10 10 9 9 9 8 8 8 6 5 3 2 2 2 3 3 4 4 5 6 7 8 9 10 11 12 13 13 14 14 14 14 14 14 15 16 18 18 18 19 19 20 21 23 23 24 25 26 26 25 24 24 24 24 25 26 27
13 12 11 10 9 9 8 8 8 8 8 8 9 9 9 10 11 11 10 9 10 11 11 11 11 11 10 10 11 10 10 10 9 9 8 6 5 4 3 2 1 1 3 4 4 5 5 6 7 8 9 10 11 12 12 13 13 14 14 13 13 13 15 16 17 18 19 18 19 20 21 22 23 24 25 26 26 25 24 24 24 25 26 27 28
11 11 10 9 8 8 8 8 8 7 8 8 8 8 9 10 11 11 11 10 10 10 10 10 10 10 10 10 10 10 10 10 9 8 7 5 4 3 2 1 2 1 2 4 5 6 7 8 8 9 9 10 11 11 11 12 12 13 13 12 12 12 14 16 17 17 18 17 18 19 21 22 23 24 25 26 26 25 24 24 25 25 26 27 28
10 9 8 8 7 7 7 8 8 7 8 8 9 8 9 10 11 11 11 11 11 11 11 11 11 11 10 9 9 9 9 9 9 8 7 5 4 3 2 3 3 2 2 3 5 7 8 9 9 10 10 10 11 12 12 12 12 12 11 11 11 11 13 15 15 16 16 16 17 18 20 21 22 24 25 26 26 25 24 25 26 26 27 28 29
8 8 7 6 6 5 6 7 7 7 8 9 10 10 10 10 11 11 11 10 10 11 11 12 12 12 11 10 9 9 8 8 8 7 5 4 4 3 2 2 2 2 3 4 5 6 8 9 9 9 10 10 11 11 12 11 11 11 10 10 10 11 12 13 13 14 14 14 16 17 19 20 22 23 24 25 26 25 25 26 26 27 28 29 30
7 6 6 5 5 5 5 6 7 7 9 10 11 11 10 11 11 11 11 10 10 10 10 11 13 12 11 10 10 8 7 6 6 6 5 3 2 2 1 1 0 2 4 5 6 6 6 7 7 7 8 8 9 11 11 11 11 11 10 9 9 10 11 12 12 13 13 13 15 16 18 19 21 23 23 25 26 26 26 27 27 28 29 30 31
6 5 4 4 5 5 6 7 7 7 8 10 11 11 11 11 12 12 11 11 10 9 9 11 12 12 12 11 10 9 7 5 5 4 4 3 2 1 2 2 2 3 5 6 6 6 6 6 7 7 7 7 8 10 10 11 11 10 9 8 8 9 10 10 11 12 12 12 13 15 17 18 20 21 23 25 26 27 27 28 29 29 30 31 32
6 5 4 4 5 6 7 7 8 8 9 9 11 11 12 12 12 11 11 11 11 11 10 10 12 12 12 12 11 10 8 7 6 5 4 4 3 3 3 3 4 5 7 8 8 8 7 7 7 8 8 8 8 9 9 10 10 9 8 7 7 7 8 9 11 11 10 11 13 14 16 17 19 20 21 24 26 27 28 29 30 31 32 33 33
5 5 4 5 6 6 7 7 7 8 9 9 10 11 11 11 11 11 11 11 12 12 11 11 12 12 12 12 11 11 10 9 9 8 7 7 6 6 5 5 6 7 9 9 9 9 8 7 8 8 8 8 8 9 9 9 9 8 7 6 5 5 6 8 9 10 9 10 12 14 15 16 17 19 20 22 25 27 28 29 30 31 33 34 34
5 5 5 5 6 7 7 8 8 8 9 9 10 10 11 11 11 11 11 12 12 12 12 12 11 11 10 11 11 11 11 10 10 9 9 9 8 7 7 7 7 8 8 8 9 9 9 9 9 9 8 8 9 9 9 8 7 7 6 5 3 3 5 6 8 9 9 10 12 13 15 16 16 18 19 21 23 25 27 28 29 31 32 33 34
5 4 4 5 7 8 8 8 8 8 9 9 10 10 11 11 11 11 11 11 11 11 10 11 10 10 9 9 9 10 10 9 8 8 8 7 7 6 7 6 7 7 8 7 7 9 9 9 9 9 8 8 9 9 8 7 6 6 5 3 2 2 4 6 8 9 10 11 12 13 14 15 16 17 18 19 21 23 25 27 27 29 31 32 33
5 4 4 5 7 9 9 9 9 9 9 9 9 9 9 10 10 11 11 11 10 10 9 9 8 8 8 9 9 8 8 7 7 6 6 6 6 5 5 6 6 7 7 6 6 7 7 8 9 9 9 9 9 8 7 6 6 6 5 3 1 1 2 5 7 10 11 11 12 13 14 14 15 16 17 18 19 21 23 25 26 28 29 30 32
6 5 4 6 8 9 9 9 9 9 9 9 8 8 8 8 9 9 9 9 8 8 8 7 6 6 7 7 8 7 6 6 6 6 6 6 5 5 6 6 6 6 6 5 5 6 6 6 7 8 9 9 8 8 7 6 6 6 5 3 0 1 2 5 7 10 11 12 12 13 13 14 15 16 16 17 18 19 21 23 25 27 28 29 30
7 6 6 6 8 9 9 9 9 9 9 8 8 8 8 7 7 7 6 6 6 6 5 5 5 6 6 6 6 5 5 5 6 6 6 6 6 7 7 7 7 7 7 6 6 6 5 5 5 6 7 7 7 7 6 5 5 5 4 1 1 1 2 5 7 10 11 11 13 14 14 15 15 16 16 17 17 19 20 22 25 26 27 28 29
8 7 7 7 8 9 9 8 8 8 8 8 7 7 7 7 6 6 5 5 5 5 4 4 5 4 4 4 4 5 5 6 7 6 6 7 8 8 9 9 9 9 9 8 7 7 6 5 5 6 6 6 5 5 5 5 5 4 3 1 2 1 2 5 7 9 10 11 13 15 16 16 16 16 17 17 17 18 20 22 24 26 26 27 28
9 8 8 8 8 9 8 8 7 7 7 7 6 6 6 5 5 5 5 4 4 4 4 4 4 4 4 4 4 5 6 7 7 7 7 9 10 10 10 10 11 11 10 9 7 7 6 6 7 6 6 6 5 5 5 5 5 4 2 1 2 1 3 5 7 8 9 11 14 16 16 16 16 17 17 18 18 19 19 21 23 25 26 26 27
9 9 9 9 9 9 8 8 7 7 6 6 5 5 5 4 4 4 4 3 3 3 3 3 3 4 4 4 5 6 7 7 8 8 9 10 11 11 11 10 10 10 9 8 6 6 6 6 8 7 6 6 5 5 5 5 4 3 2 1 1 1 2 4 6 7 9 12 14 16 17 17 17 17 18 19 19 19 19 20 21 23 24 25 26
8 9 9 10 10 9 9 8 7 7 6 5 5 4 4 4 4 3 3 2 2 2 2 3 3 3 3 4 5 6 6 7 7 7 8 10 10 11 11 10 9 9 8 7 6 6 6 5 7 7 6 5 5 4 4 3 3 2 1 0 1 1 1 3 5 7 10 12 14 16 17 18 18 18 18 19 18 19 19 20 20 21 23 24 24
9 9 9 10 10 10 10 9 8 7 6 6 5 4 4 4 3 3 3 3 3 3 3 3 3 3 4 4 5 5 5 6 6 7 8 9 9 10 10 10 9 8 7 7 5 5 6 5 5 6 5 4 4 3 3 2 2 1 1 1 2 2 2 3 6 8 10 12 15 17 18 19 18 18 18 18 18 18 19 20 21 21 22 23 23
9 9 10 10 10 10 10 10 9 8 7 7 6 6 5 5 4 4 4 4 4 4 4 3 3 4 4 4 5 5 5 6 7 7 8 9 9 8 9 9 8 8 7 7 6 5 6 6 6 5 5 5 4 4 4 3 2 1 1 0 1 2 3 5 7 9 11 13 15 18 19 20 19 19 18 18 18 18 19 20 21 21 21 21 22
10 10 10 11 11 11 10 10 10 9 8 8 7 7 7 7 6 6 6 6 6 5 5 5 5 5 5 5 5 6 6 6 7 7 8 8 7 7 7 8 8 8 8 7 6 6 6 7 7 6 6 5 5 4 4 3 2 2 2 2 2 2 4 6 8 10 12 13 16 18 20 20 19 19 18 18 18 19 19 20 20 20 20 20 21
12 12 11 11 11 11 11 10 10 9 9 9 8 8 8 8 8 8 8 8 8 8 7 7 7 7 7 7 7 7 8 8 8 8 9 9 8 8 8 9 9 8 8 7 7 6 6 7 7 7 6 5 5 5 5 4 4 4 4 4 4 4 6 8 10 12 13 15 17 18 19 19 18 18 18 18 18 18 18 18 18 18 19 19 19
12 12 12 12 12 12 12 11 10 10 9 9 9 9 9 9 9 9 9 9 9 9 9 8 8 8 9 9 9 9 9 9 10 10 10 11 11 10 10 10 9 9 9 8 7 7 7 7 8 7 7 6 6 7 7 6 6 6 6 7 7 7 8 10 12 13 15 16 17 17 17 16 16 16 16 17 17 17 16 16 17 17 16 17 17
13 13 13 13 13 13 12 12 11 11 11 11 10 10 9 9 9 9 10 10 10 10 9 9 10 10 10 11 11 11 11 11 11 11 12 12 12 12 12 11 11 10 10 9 9 9 9 9 9 9 8 8 8 9 9 9 9 8 9 10 10 11 11 11 13 15 17 17 15 15 14 13 13 13 14 14 15 15 15 15 15 15 15 15 16
14 14 14 14 14 13 13 13 13 13 13 13 12 11 11 10 10 10 10 10 10 11 11 11 11 12 12 12 12 12 12 12 12 13 13 13 13 14 14 13 13 12 11 11 11 12 12 12 12 11 10 10 11 11 11 12 12 12 12 11 12 13 14 14 14 15 16 15 13 12 13 12 12 12 12 12 12 12 12 13 13 13 13 13 14
15 15 15 15 15 15 15 15 15 15 15 14 14 13 12 12 12 11 11 10 11 12 12 12 13 13 13 12 12 12 12 13 13 14 14 14 14 14 14 15 15 14 14 14 14 15 15 15 15 14 13 13 13 14 13 13 14 15 15 14 13 12 13 14 14 14 14 14 11 10 12 12 11 11 10 10 10 10 10 11 11 12 12 12 13
15 16 17 17 16 16 16 17 17 17 16 16 15 15 15 14 14 14 12 12 12 12 12 12 13 14 14 14 13 13 14 14 15 15 15 14 14 14 14 14 14 14 14 15 15 16 17 17 17 17 17 16 16 17 16 16 16 16 17 17 16 14 13 12 11 11 13 15 13 11 12 13 12 10 10 9 9 9 9 10 10 11 12 12 12
16 16 16 16 16 17 18 18 19 18 18 17 17 17 17 17 17 16 15 15 14 14 13 13 13 14 15 15 15 15 15 15 16 16 16 15 14 14 14 14 14 14 14 15 15 16 17 17 17 17 17 17 17 18 18 17 17 17 17 17 17 16 15 14 12 11 12 15 16 13 12 14 14 13 12 11 10 10 10 10 11 12 12 12 12
17 16 16 16 16 17 18 19 19 19 19 19 19 19 19 19 18 18 18 17 17 16 15 15 15 15 16 16 16 16 16 16 17 17 16 16 15 15 14 14 14 15 15 16 16 16 16 16 16 16 16 17 16 16 17 17 17 17 16 16 16 16 16 16 15 13 12 14 16 15 13 13 15 14 14 13 12 11 11 12 13 14 14 13 12
20 19 18 18 18 18 18 19 19 19 20 20 21 21 21 21 21 21 20 20 19 18 17 17 18 18 18 18 17 17 17 17 18 18 17 16 16 16 15 15 15 15 16 17 17 17 17 16 16 16 16 17 17 16 16 17 17 17 16 16 16 17 17 18 18 17 15 14 17 17 14 14 15 15 15 15 14 13 12 13 13 14 14 13 13
24 23 22 21 21 21 20 19 20 21 22 22 22 22 23 23 23 22 22 22 21 21 20 20 21 21 20 20 20 20 20 20 20 20 19 19 18 18 18 18 17 17 17 18 18 18 18 18 18 17 17 18 18 17 17 18 18 18 18 18 18 18 19 19 20 20 19 18 19 19 17 16 16 16 15 15 15 14 13 13 13 14 14 14 13
27 26 25 25 24 23 22 22 22 22 22 23 23 23 23 23 23 23 24 24 24 23 23 23 23 23 22 22 22 23 23 23 23 23 23 23 22 22 22 21 21 21 20 20 21 21 21 20 20 19 19 19 20 20 19 19 20 20 21 21 21 21 21 22 21 21 20 19 20 20 19 18 18 18 17 16 15 15 14 14 14 14 15 15 15
28 28 27 27 26 25 24 23 23 24 24 24 24 24 24 24 24 24 25 25 25 24 24 24 24 24 23 23 23 24 24 25 25 26 26 26 25 25 25 25 24 24 24 23 23 23 23 23 23 22 21 21 22 22 21 20 21 21 22 23 23 23 23 23 23 22 20 20 20 21 20 19 19 19 19 18 17 16 16 15 15 15 16 16 17
29 29 29 28 28 27 27 26 26 25 25 26 26 25 25 25 25 26 26 25 25 25 25 25 25 26 25 25 25 25 25 26 26 27 27 28 28 27 27 27 27 27 26 26 25 25 25 25 25 24 24 23 24 24 24 24 23 23 23 24 24 25 25 26 26 24 22 20 20 21 21 20 20 21 21 20 19 18 18 17 16 16 17 17 16
29 29 29 29 29 29 29 28 28 28 27 27 27 27 27 26 26 26 27 26 26 26 25 25 26 26 26 26 27 27 28 28 28 29 29 29 29 29 29 28 28 28 28 28 27 26 26 25 25 25 25 25 26 26 26 27 26 26 26 26 26 27 28 28 28 28 25 21 21 22 23 21 21 23 23 22 21 20 19 17 17 17 16 16 16
29 29 28 29 29 30 31 30 30 30 29 29 29 29 28 28 28 27 27 27 26 26 26 26 26 26 27 28 28 29 30 30 31 31 31 31 31 30 31 31 31 30 29 29 29 28 28 27 26 26 27 27 27 28 28 29 29 28 28 28 28 28 29 29 30 30 28 24 22 24 24 23 23 25 26 25 22 21 19 17 16 16 16 15 15
30 29 28 28 29 29 30 31 31 30 29 29 29 29 30 30 29 29 28 28 28 27 27 27 27 27 28 29 30 31 32 33 33 34 34 33 33 33 34 34 34 32 31 30 30 30 30 29 28 28 29 29 29 29 29 30 30 30 30 30 30 29 29 29 30 30 28 25 24 25 26 25 25 26 28 28 25 22 19 17 16 16 16 16 16
32 31 29 29 31 31 30 30 31 30 30 29 29 29 30 30 30 31 31 30 29 28 28 29 29 29 30 31 32 33 34 35 36 36 37 37 36 36 35 35 34 33 32 31 31 31 31 30 31 31 32 32 32 32 31 31 31 31 30 30 30 30 29 29 29 29 28 26 25 25 27 27 27 26 27 29 28 24 20 18 17 18 17 17 17
Wind_Direction
138 137 136 134 132 132 132 132 130 128 128 125 124 123 122 124 123 122 121 116 111 108 107 109 112 109 105 105 108 117 124 127 129 127 126 124 121 119 115 111 106 100 95 91 88 80 69 58 46 39 37 37 37 35 32 28 24 22 18 15 13 13 14 13 13 13 14 14 13 13 12 12 12 11 10 6 2 357 354 356 359 3 11 18 17
135 134 134 134 132 132 133 132 130 131 130 126 123 120 121 124 122 120 117 112 106 102 103 108 111 109 107 106 107 115 123 127 128 126 126 124 121 118 114 112 109 104 95 87 82 71 58 46 35 31 30 29 30 29 26 21 17 16 13 11 11 11 12 13 13 14 14 13 12 12 12 12 12 12 9 5 2 358 355 354 354 357 6 15 15
133 134 134 134 134 135 134 132 130 130 128 124 120 116 118 120 118 115 113 108 103 98 98 104 107 106 104 106 108 114 122 128 127 126 127 124 121 118 114 111 108 104 94 82 73 60 47 37 28 25 23 22 23 22 20 17 14 12 9 9 10 11 13 13 13 14 13 12 11 11 11 11 13 13 9 5 3 359 355 353 353 357 5 11 10
134 135 135 135 135 134 132 129 126 126 125 121 117 115 116 116 114 112 112 110 106 102 102 108 111 107 106 108 111 115 122 128 127 126 127 126 121 116 112 108 102 97 90 78 66 52 39 29 23 20 18 18 17 16 16 14 12 9 7 8 10 12 13 14 14 13 12 11 10 10 10 12 14 13 9 7 5 1 357 356 358 1 6 8 5
133 133 134 133 131 129 127 123 121 122 123 122 120 119 118 116 114 115 115 110 106 106 110 116 117 114 116 116 111 113 121 125 123 122 125 125 119 113 109 103 97 93 86 75 62 48 34 24 18 16 15 14 13 13 12 11 9 7 6 7 9 12 13 14 13 12 12 11 10 10 11 14 16 14 12 11 9 5 2 2 3 4 6 5 2
130 131 130 129 127 124 123 121 122 124 125 124 123 121 119 117 116 114 108 104 101 105 112 116 119 122 125 118 110 112 118 120 119 117 120 123 119 112 107 101 95 87 77 65 52 40 30 21 15 13 12 11 10 9 8 7 7 6 6 7 8 11 12 13 12 12 13 12 11 12 13 16 17 17 16 16 13 10 7 6 5 4 4 2 1
127 127 126 124 122 121 121 122 124 126 125 123 120 118 116 114 112 108 104 103 101 100 105 115 125 130 125 115 113 117 119 120 119 117 121 130 128 113 106 101 91 77 63 52 41 33 26 19 13 10 8 7 6 5 4 5 5 6 7 7 8 10 12 13 12 13 15 14 14 14 16 18 19 19 19 18 15 12 10 7 4 2 1 0 360
122 121 120 119 119 120 122 124 125 125 123 119 115 114 113 113 112 113 114 111 106 103 106 115 124 127 120 112 115 120 121 122 122 119 122 132 132 115 105 93 77 60 48 41 34 28 23 16 11 7 5 3 1 1 1 2 4 5 7 8 9 11 13 14 14 15 17 16 15 15 18 21 21 21 21 19 16 14 11 7 4 1 359 358 358
118 118 117 118 119 121 122 123 123 122 122 119 117 116 115 116 120 124 123 117 112 110 113 116 114 114 111 107 111 118 117 115 114 113 116 121 116 102 98 89 71 52 39 30 23 20 18 13 8 3 1 359 358 358 360 1 3 5 8 9 10 13 15 15 16 18 17 16 17 17 20 22 22 21 21 20 17 14 11 7 3 1 359 358 358
118 117 117 118 119 120 120 120 119 119 120 119 119 119 117 118 124 127 123 118 117 118 120 118 110 103 93 86 90 99 103 103 100 97 98 98 86 66 74 79 71 54 38 27 17 12 9 6 2 358 357 356 356 357 359 1 2 5 9 11 12 15 17 17 18 19 17 17 17 18 21 23 22 20 20 19 17 13 11 7 3 2 359 357 357
116 116 115 116 117 118 118 117 116 117 118 119 120 120 119 119 121 118 112 109 113 119 119 114 107 100 89 80 79 79 87 94 95 94 90 86 81 64 55 57 62 54 36 24 13 5 2 359 354 352 352 353 355 355 358 1 2 4 8 11 13 17 18 17 19 19 17 17 16 18 22 23 21 19 18 18 16 13 10 7 5 3 0 358 358
113 113 113 115 115 116 116 116 115 116 115 117 119 118 120 122 119 113 108 108 112 117 117 113 109 102 96 92 89 86 89 93 95 100 98 91 85 78 62 44 42 41 29 17 6 360 357 355 349 346 348 352 354 353 356 360 1 3 6 9 14 17 17 17 18 19 17 16 16 19 24 23 21 18 16 16 15 13 10 8 6 4 2 360 360
109 110 111 113 114 114 115 116 118 118 116 115 116 115 115 117 116 115 114 114 116 118 118 116 111 103 98 97 96 97 99 98 99 99 98 96 90 83 73 47 29 20 13 359 352 354 354 353 348 344 349 354 357 356 358 1 2 3 4 7 14 16 16 16 16 17 17 16 17 21 24 23 21 17 14 14 14 13 10 9 8 5 3 2 2
109 110 111 113 115 115 116 116 119 120 118 116 116 116 115 114 115 117 119 119 120 122 122 121 117 110 107 105 101 102 103 102 103 102 101 105 105 99 89 68 31 2 355 347 345 353 354 353 347 344 348 355 0 0 360 2 4 4 5 9 15 15 16 16 14 16 16 16 18 22 23 22 20 16 13 12 12 12 10 9 8 7 6 4 4
107 107 109 111 112 114 116 118 122 124 123 122 122 123 125 122 119 120 123 122 120 123 126 127 123 118 115 109 103 102 104 105 106 105 106 108 111 114 119 121 102 15 352 344 346 351 354 358 357 352 351 356 0 359 358 2 3 4 7 13 17 17 17 15 14 15 14 15 20 23 22 21 19 15 11 10 10 11 11 10 9 8 8 6 6
104 104 105 108 109 111 116 122 128 131 132 131 132 135 136 131 126 126 128 126 122 122 125 125 122 122 117 107 105 106 106 108 109 112 117 116 109 100 91 86 81 52 347 339 340 341 350 1 2 357 355 359 359 353 354 358 359 3 9 15 19 20 18 15 14 13 11 15 22 23 22 21 18 14 11 9 10 12 12 11 10 9 9 7 7
106 106 106 107 110 115 122 128 133 136 138 139 140 144 144 137 129 129 133 134 131 128 128 126 124 125 122 114 113 116 114 113 116 124 133 135 121 101 64 49 56 42 339 334 329 331 344 355 356 353 353 358 355 347 349 354 358 5 10 16 21 21 18 15 13 10 9 17 23 23 22 20 17 14 11 9 11 15 15 14 11 10 10 9 8
109 107 105 103 106 115 122 129 134 139 143 145 147 151 151 143 135 134 139 142 138 134 133 130 128 131 133 130 130 131 127 124 126 131 139 143 126 115 102 62 45 355 321 316 311 322 335 343 348 347 345 348 347 342 347 355 2 8 12 18 24 21 16 14 11 5 8 18 23 23 22 19 17 15 11 10 13 17 18 16 14 13 12 11 10
110 105 102 99 101 109 118 129 138 145 149 152 153 154 155 151 145 143 145 146 142 138 135 132 132 137 140 139 139 139 138 136 138 143 149 154 139 136 168 178 38 302 297 295 299 311 321 327 335 338 337 341 342 342 350 359 6 10 16 23 24 20 15 14 8 3 8 17 21 22 21 18 16 15 11 10 12 16 18 18 17 16 15 13 11
115 110 105 102 105 114 125 136 143 147 151 155 156 157 158 157 153 150 149 146 141 139 139 135 135 139 140 140 142 144 147 149 154 167 170 168 181 229 257 280 301 295 289 292 300 309 316 322 331 338 343 347 346 348 355 3 8 12 18 21 20 18 15 14 6 1 7 14 19 21 19 17 15 13 10 9 10 12 15 17 16 17 17 16 13
125 122 115 107 110 120 129 137 143 147 152 156 158 160 160 159 156 153 150 145 141 142 143 139 138 141 143 146 149 153 159 165 174 189 196 193 209 237 263 286 293 284 278 283 295 306 314 322 333 343 350 353 350 351 357 3 8 11 13 13 16 20 19 14 3 358 4 12 18 18 16 16 13 10 9 6 7 8 10 13 13 14 17 17 15
137 131 122 115 119 123 128 135 143 149 154 157 159 160 160 159 157 155 151 147 146 147 147 145 146 150 152 153 155 160 170 179 184 192 204 212 219 228 235 243 251 254 259 269 285 303 314 323 334 343 348 349 343 345 354 2 6 5 6 11 19 27 23 12 359 355 3 12 16 15 15 14 9 8 7 4 6 6 6 9 10 11 15 16 15
149 138 127 125 130 131 131 136 142 148 154 160 164 163 162 160 157 155 153 153 155 156 153 152 154 158 159 159 161 170 180 188 192 195 205 216 224 232 238 241 247 254 263 275 290 306 318 324 330 336 339 338 334 339 352 359 1 1 4 16 35 38 22 7 356 356 5 12 14 12 13 11 5 5 5 3 4 4 4 6 8 9 12 14 14
159 147 136 135 139 141 139 139 143 148 154 162 167 167 164 162 160 160 161 162 164 164 161 159 161 163 165 167 173 180 185 192 199 204 211 221 228 235 242 248 254 261 274 284 289 297 308 314 318 324 327 329 334 342 351 356 358 3 8 22 51 41 15 6 1 4 10 13 13 12 11 8 2 3 4 2 2 2 2 4 6 8 10 12 13
167 162 151 147 147 149 149 147 147 148 152 158 161 163 164 164 165 168 169 171 171 170 169 170 171 172 176 180 185 190 192 198 208 214 219 230 238 245 253 262 268 270 278 285 284 286 295 302 308 318 323 328 339 344 348 352 355 1 5 14 50 32 6 8 8 12 16 17 14 12 10 5 2 3 4 3 2 2 2 2 5 8 10 12 12
177 176 168 159 156 156 156 153 151 150 150 151 151 154 158 161 167 172 172 176 178 178 178 179 181 186 195 197 198 205 209 216 229 237 244 253 262 270 274 275 278 282 287 290 287 288 294 299 306 316 321 325 335 340 345 351 352 355 358 6 117 208 1 14 14 17 20 19 16 12 8 4 2 2 4 4 3 3 3 3 5 8 10 12 13
185 185 180 170 163 162 159 157 156 153 151 151 151 152 152 154 160 166 169 175 182 187 189 191 194 203 213 217 225 237 245 250 261 274 285 293 296 294 295 299 302 308 315 318 310 306 311 311 307 307 306 311 323 333 343 349 351 356 360 16 179 204 18 21 16 16 17 14 10 7 3 2 0 0 2 3 4 5 4 5 6 7 9 13 13
189 190 185 177 171 167 162 159 159 157 154 155 157 156 152 152 156 158 165 173 179 187 197 205 209 218 226 232 244 262 269 271 283 298 300 297 298 300 307 314 318 320 323 325 321 319 321 318 305 296 297 307 320 330 339 348 356 3 11 109 177 189 28 25 19 16 13 9 7 2 358 355 355 356 359 2 4 5 5 5 6 5 8 12 13
193 191 188 183 178 175 170 165 163 161 160 161 162 159 155 156 161 164 170 181 187 190 203 218 229 238 243 249 258 268 274 279 289 298 296 294 298 306 312 314 313 313 315 317 315 310 306 303 300 300 306 318 328 332 338 350 360 4 20 130 169 129 29 24 19 15 14 13 9 3 357 353 351 351 355 0 2 2 2 5 5 3 6 11 11
197 191 190 187 183 181 179 175 173 171 169 169 168 165 163 167 173 177 183 197 208 206 212 229 243 255 267 274 274 275 279 283 291 297 294 294 300 307 312 312 310 309 308 308 303 298 297 293 298 311 320 324 331 338 342 351 357 357 11 109 158 86 25 16 14 12 12 12 7 1 356 353 351 350 352 357 358 356 359 3 3 2 4 8 10
201 193 190 190 188 188 187 186 185 183 183 186 186 184 184 183 185 192 199 213 231 236 240 248 254 266 280 287 284 283 285 289 296 299 296 296 302 307 309 309 307 305 303 305 305 306 312 309 308 323 337 336 338 345 348 354 359 359 7 143 189 202 324 352 2 5 4 2 360 356 354 352 351 350 351 354 353 351 354 359 0 0 3 5 8
207 199 194 192 193 194 194 194 196 197 197 201 206 212 216 216 213 216 224 239 257 264 267 267 269 275 283 288 289 289 293 299 304 306 303 304 307 305 304 304 302 300 302 308 314 315 325 337 334 337 350 357 1 6 11 20 31 43 92 184 204 223 276 335 349 352 352 351 350 349 348 349 350 350 350 351 350 349 352 357 358 359 2 3 4
212 207 203 200 200 201 202 202 204 206 208 212 219 226 233 240 244 245 246 251 260 266 268 267 269 274 279 283 289 291 293 297 302 306 308 311 312 307 304 305 306 308 310 314 320 322 328 341 350 352 359 9 14 18 28 40 50 56 66 167 221 251 294 326 335 339 342 343 344 344 343 345 348 349 349 349 349 350 353 356 356 357 359 359 359
214 214 213 210 209 209 211 211 213 216 220 224 228 233 239 243 247 249 248 247 249 254 258 260 263 267 270 272 278 282 283 285 291 298 301 304 307 305 301 302 304 306 308 313 323 326 323 329 337 346 354 2 7 11 20 27 25 22 12 355 330 302 308 322 330 335 337 339 342 341 340 343 347 348 349 349 351 353 355 354 353 354 356 355 355
217 219 220 219 217 217 218 220 223 226 231 235 238 243 245 246 247 248 248 247 246 247 251 254 258 263 267 270 273 276 278 279 282 285 285 287 291 293 292 293 295 297 301 308 315 316 312 313 320 328 336 343 345 350 359 3 0 360 351 340 334 326 324 328 331 334 337 340 342 340 338 342 347 349 349 351 353 354 353 350 350 353 353 351 351
222 222 223 225 224 223 224 226 229 233 238 241 243 247 250 252 253 253 252 252 251 252 253 255 257 261 265 269 271 272 274 277 279 279 280 282 284 286 285 284 286 290 295 300 303 303 301 300 304 313 322 330 330 331 336 341 346 347 340 335 333 331 330 329 329 332 335 339 341 339 338 343 346 348 349 351 351 351 349 348 350 352 351 350 349
229 227 228 230 230 230 232 234 236 237 241 245 247 250 252 255 258 258 258 257 258 259 259 258 257 258 262 267 269 271 272 274 276 276 277 277 277 278 278 278 279 281 285 289 291 292 292 292 297 305 313 319 320 320 322 326 332 334 328 325 324 324 325 325 327 330 330 333 337 337 338 343 347 347 348 348 347 347 346 347 349 350 351 351 350
235 233 233 234 234 236 238 241 243 244 245 248 250 252 254 256 258 259 261 263 264 264 264 263 261 260 260 262 265 267 269 271 273 273 273 272 272 273 274 274 275 277 279 282 286 288 290 292 296 300 303 305 307 309 311 314 317 317 315 313 314 315 319 323 326 327 324 326 334 335 335 340 344 345 347 347 345 346 345 344 346 348 351 354 354
241 238 237 238 238 239 241 243 245 247 249 251 252 255 257 259 259 258 258 262 264 265 267 268 268 267 265 264 264 264 265 267 269 270 270 272 274 275 273 271 272 273 276 279 281 283 286 289 293 296 298 297 297 297 299 299 300 302 304 307 310 312 316 320 323 323 321 323 334 338 332 334 340 342 345 345 345 347 345 343 344 346 351 355 354
245 243 241 239 238 240 242 244 245 248 250 253 255 257 258 259 260 260 259 260 263 264 266 266 267 268 268 267 266 263 263 265 267 269 271 274 277 277 274 271 270 271 273 274 275 277 280 284 288 291 293 293 291 291 292 292 292 293 297 301 305 309 312 314 317 320 319 321 332 342 335 331 336 339 338 338 343 344 341 340 341 342 347 353 352
244 245 244 243 241 240 242 243 244 245 248 252 254 255 256 256 257 258 258 259 261 262 263 262 262 264 266 267 266 264 264 266 267 270 272 274 275 276 276 276 276 276 275 274 274 275 278 283 287 289 290 290 289 289 289 289 289 290 292 295 298 301 304 307 312 319 321 319 324 334 335 328 328 331 330 333 337 337 335 336 335 335 341 346 347
242 243 245 246 245 243 242 243 243 242 244 247 248 249 251 252 253 256 257 259 260 262 263 263 262 262 264 266 266 265 265 266 267 269 272 274 276 276 277 278 279 280 280 278 277 277 279 283 287 288 288 288 288 289 289 290 289 289 291 292 293 295 298 303 307 313 317 314 312 318 324 321 318 320 322 325 329 330 331 331 329 331 337 340 342
241 241 241 242 243 242 242 242 242 241 242 243 244 245 248 250 252 255 257 259 261 264 265 266 265 265 265 266 266 265 265 266 268 271 273 276 278 279 280 280 280 281 282 282 281 282 283 284 285 285 285 286 286 287 288 290 290 291 291 291 292 294 297 301 304 307 311 310 306 308 314 314 311 312 314 315 318 321 322 322 322 326 329 330 334
238 239 239 239 239 239 239 240 242 243 244 246 247 249 250 252 254 256 259 261 265 267 268 267 267 267 267 266 265 265 265 267 269 272 274 276 277 278 280 281 281 282 283 284 285 285 285 285 284 283 283 285 287 287 288 290 291 292 292 291 292 293 294 296 299 302 306 306 304 304 308 308 307 308 308 309 311 312 312 314 317 319 320 321 324
240 241 241 241 241 240 239 239 240 243 247 250 252 253 254 255 256 258 261 264 267 269 270 270 270 271 271 269 268 267 268 269 270 272 273 275 277 278 279 280 281 281 281 282 284 285 285 284 284 284 284 285 287 289 290 292 293 293 293 293 293 293 292 292 293 295 297 298 298 299 302 303 302 303 304 304 305 307 308 311 314 316 317 319 320
247 246 246 246 247 246 245 243 242 242 244 247 250 252 254 256 257 259 260 263 265 268 270 271 273 274 274 274 273 272 272 271 271 271 272 274 275 277 278 279 280 281 281 281 281 282 282 283 283 284 285 286 287 289 290 291 292 293 294 294 295 294 293 292 290 290 290 293 295 296 299 300 300 299 300 301 301 303 304 307 310 313 315 317 318
247 249 250 251 251 251 250 249 248 247 246 246 248 251 253 255 257 260 262 264 266 268 270 273 274 276 277 277 276 276 274 273 272 272 273 274 275 276 277 278 278 280 281 281 281 280 280 281 283 285 287 288 289 289 290 291 293 294 294 294 294 295 295 294 292 291 291 294 296 296 296 297 298 297 297 298 299 300 301 303 306 309 312 314 316
243 246 250 253 254 254 254 252 251 251 251 251 252 253 254 255 257 260 262 265 267 268 270 271 273 276 277 278 278 277 276 276 274 273 273 273 274 275 276 277 277 277 278 279 279 278 277 277 279 282 285 286 288 289 289 290 292 293 292 291 291 291 292 292 292 293 295 298 298 294 291 292 294 294 293 294 295 297 298 301 304 307 309 310 311
243 244 246 249 252 254 255 255 255 253 253 254 255 256 257 258 258 259 261 263 265 266 269 271 273 275 276 277 278 278 278 278 276 275 273 273 273 275 277 278 278 277 276 277 277 276 275 275 276 279 282 283 284 285 286 287 288 290 289 288 287 287 288 288 289 291 294 296 294 289 287 288 290 290 290 290 290 292 294 298 301 303 304 304 305
245 245 245 248 252 254 255 254 254 253 254 255 256 257 258 259 260 260 261 261 262 263 265 266 268 270 272 274 275 275 275 275 274 274 273 272 272 274 277 278 278 277 275 274 274 274 274 276 278 280 282 282 282 282 282 283 286 288 289 288 288 287 286 286 287 289 291 292 288 284 285 287 288 289 290 290 290 290 293 297 298 298 298 299 299
247 247 246 246 249 253 255 254 252 251 252 253 254 256 258 260 261 261 262 263 264 265 265 265 266 269 271 273 274 273 272 272 272 273 272 272 273 274 276 277 277 275 272 270 271 272 273 274 277 279 280 281 280 280 279 280 283 285 286 287 287 287 286 286 287 289 290 290 285 282 283 285 286 286 287 289 291 292 292 293 294 294 295 295 295
Height
5922 5923 5924 5924 5925 5926 5928 5929 5929 5930 5931 5931 5931 5932 5932 5933 5935 5936 5937 5938 5939 5939 5939 5940 5940 5941 5941 5941 5941 5942 5942 5943 5943 5943 5943 5943 5944 5944 5945 5945 5946 5946 5946 5946 5946 5946 5945 5945 5944 5944 5943 5943 5942 5942 5941 5939 5938 5937 5936 5935 5934 5933 5932 5931 5930 5929 5928 5927 5925 5924 5923 5921 5919 5917 5915 5913 5911 5908 5905 5903 5903 5904 5906 5905 5903
5923 5924 5924 5925 5926 5927 5928 5929 5930 5931 5931 5932 5932 5933 5934 5935 5936 5937 5938 5939 5940 5940 5941 5941 5942 5942 5942 5942 5943 5943 5944 5944 5944 5944 5944 5944 5945 5945 5946 5946 5947 5947 5947 5947 5947 5947 5946 5946 5945 5945 5944 5944 5943 5942 5941 5940 5939 5938 5937 5935 5934 5933 5933 5932 5931 5929 5928 5927 5926 5924 5923 5921 5919 5917 5915 5913 5911 5909 5906 5904 5902 5902 5903 5904 5902
5924 5925 5925 5926 5927 5928 5929 5930 5930 5931 5932 5933 5934 5934 5935 5936 5937 5938 5939 5940 5941 5941 5942 5943 5943 5943 5943 5944 5944 5945 5945 5945 5945 5945 5945 5946 5946 5947 5947 5947 5948 5948 5948 5948 5948 5948 5947 5947 5946 5945 5945 5944 5943 5942 5941 5940 5939 5938 5937 5936 5935 5934 5933 5932 5931 5930 5928 5927 5926 5924 5923 5921 5919 5917 5915 5913 5911 5909 5906 5904 5903 5902 5902 5902 5900
5925 5925 5926 5927 5928 5929 5930 5930 5931 5932 5933 5934 5935 5936 5937 5938 5939 5939 5940 5941 5941 5942 5943 5944 5944 5944 5944 5945 5945 5945 5946 5946 5946 5946 5947 5947 5948 5948 5948 5949 5949 5949 5949 5949 5949 5948 5948 5947 5947 5946 5945 5944 5944 5943 5942 5941 5940 5939 5937 5936 5935 5934 5933 5932 5931 5930 5929 5927 5926 5924 5922 5921 5919 5917 5915 5913 5911 5909 5906 5904 5903 5901 5901 5900 5899
5926 5926 5927 5928 5929 5930 5930 5931 5932 5933 5934 5935 5936 5937 5938 5939 5940 5940 5941 5941 5942 5943 5944 5944 5944 5945 5945 5946 5946 5946 5947 5947 5947 5947 5948 5948 5949 5949 5949 5950 5950 5950 5950 5950 5949 5949 5948 5948 5947 5946 5946 5945 5944 5943 5942 5941 5940 5939 5938 5936 5935 5934 5933 5932 5931 5930 5929 5927 5925 5924 5922 5920 5919 5917 5915 5913 5911 5909 5906 5904 5902 5901 5900 5899 5898
5926 5927 5928 5929 5930 5931 5931 5932 5933 5935 5936 5936 5937 5938 5939 5940 5940 5941 5942 5942 5943 5944 5944 5945 5945 5946 5946 5947 5947 5948 5948 5948 5948 5948 5949 5949 5950 5950 5950 5951 5951 5951 5951 5950 5950 5950 5949 5949 5948 5947 5946 5945 5944 5943 5942 5941 5940 5939 5938 5937 5935 5934 5933 5932 5931 5930 5929 5927 5925 5924 5922 5920 5919 5917 5915 5913 5911 5909 5907 5904 5902 5900 5899 5898 5897
5927 5928 5929 5930 5931 5931 5932 5933 5935 5936 5937 5938 5938 5939 5940 5940 5941 5942 5942 5943 5944 5945 5945 5945 5946 5947 5947 5948 5948 5949 5948 5949 5949 5949 5949 5950 5951 5951 5951 5951 5951 5951 5951 5951 5951 5950 5950 5949 5949 5948 5947 5946 5945 5944 5943 5941 5940 5939 5938 5937 5936 5934 5933 5932 5931 5930 5929 5927 5925 5924 5922 5920 5919 5917 5915 5913 5911 5909 5907 5904 5902 5900 5899 5898 5896
5928 5929 5930 5931 5931 5933 5934 5935 5936 5937 5938 5939 5939 5940 5941 5941 5942 5942 5943 5944 5944 5945 5945 5946 5947 5948 5949 5949 5949 5950 5949 5949 5950 5950 5950 5951 5952 5952 5952 5952 5952 5952 5952 5951 5951 5951 5950 5950 5949 5948 5947 5946 5945 5944 5943 5942 5940 5939 5938 5937 5936 5935 5933 5932 5931 5930 5929 5927 5925 5924 5922 5920 5919 5917 5915 5913 5911 5909 5907 5905 5902 5900 5898 5897 5896
5930 5930 5931 5932 5933 5934 5935 5936 5937 5938 5939 5939 5940 5941 5941 5942 5943 5943 5944 5944 5944 5945 5946 5947 5948 5949 5950 5950 5951 5950 5950 5950 5951 5951 5951 5952 5952 5953 5952 5952 5952 5952 5952 5952 5951 5951 5950 5950 5949 5948 5947 5946 5945 5944 5943 5942 5941 5940 5938 5937 5936 5935 5934 5932 5931 5930 5928 5927 5925 5924 5922 5920 5919 5917 5915 5913 5912 5910 5907 5905 5902 5900 5898 5896 5895
5931 5932 5933 5934 5935 5936 5937 5938 5939 5939 5940 5940 5941 5941 5942 5943 5943 5944 5944 5944 5945 5946 5947 5948 5949 5950 5951 5951 5952 5952 5952 5952 5952 5952 5952 5953 5953 5954 5953 5953 5953 5952 5952 5952 5952 5951 5951 5950 5949 5948 5947 5946 5945 5944 5943 5942 5941 5940 5938 5937 5936 5935 5934 5933 5931 5930 5928 5927 5925 5924 5922 5921 5919 5917 5915 5914 5912 5910 5908 5905 5903 5900 5898 5896 5894
5933 5933 5934 5935 5937 5938 5938 5939 5940 5940 5941 5941 5942 5942 5942 5943 5944 5944 5945 5945 5946 5947 5948 5948 5949 5951 5952 5953 5953 5953 5953 5953 5953 5953 5953 5953 5954 5954 5954 5954 5953 5953 5952 5952 5951 5951 5951 5950 5949 5948 5947 5946 5945 5944 5943 5942 5941 5940 5938 5937 5936 5935 5934 5933 5931 5930 5928 5927 5926 5924 5923 5921 5919 5917 5915 5914 5912 5910 5908 5906 5903 5901 5899 5896 5894
5934 5935 5936 5937 5938 5939 5940 5940 5941 5942 5942 5942 5943 5943 5943 5944 5944 5945 5946 5946 5946 5947 5948 5949 5950 5951 5952 5953 5954 5954 5954 5954 5954 5954 5954 5954 5954 5954 5954 5954 5954 5953 5952 5952 5951 5951 5950 5950 5949 5948 5947 5946 5945 5944 5943 5942 5941 5940 5939 5938 5936 5935 5934 5933 5931 5930 5928 5927 5926 5924 5923 5921 5919 5917 5916 5914 5913 5911 5909 5906 5904 5902 5899 5897 5895
5936 5937 5938 5938 5939 5940 5941 5941 5942 5943 5943 5943 5944 5944 5945 5945 5945 5946 5947 5947 5947 5948 5949 5950 5951 5952 5953 5954 5954 5954 5954 5955 5955 5955 5954 5954 5954 5954 5954 5954 5954 5953 5952 5952 5951 5950 5950 5949 5949 5948 5947 5946 5945 5944 5943 5942 5941 5940 5939 5938 5937 5935 5934 5933 5931 5930 5929 5927 5926 5925 5923 5921 5919 5918 5916 5915 5913 5911 5909 5907 5905 5903 5900 5897 5895
5938 5939 5939 5940 5941 5941 5942 5942 5943 5944 5944 5944 5945 5945 5946 5946 5946 5947 5948 5948 5948 5949 5950 5951 5952 5952 5953 5954 5954 5955 5955 5955 5955 5955 5955 5955 5954 5954 5953 5953 5953 5953 5953 5952 5951 5951 5950 5949 5949 5948 5947 5946 5945 5945 5944 5943 5942 5940 5940 5938 5937 5936 5935 5933 5932 5930 5929 5928 5927 5925 5924 5922 5920 5918 5917 5915 5914 5912 5910 5908 5905 5903 5901 5898 5895
5940 5940 5941 5941 5942 5942 5942 5943 5943 5944 5945 5945 5946 5946 5946 5947 5947 5948 5949 5949 5950 5950 5950 5951 5952 5953 5954 5954 5955 5955 5956 5956 5956 5955 5955 5954 5954 5953 5953 5953 5953 5953 5953 5952 5951 5951 5950 5949 5949 5948 5947 5946 5945 5945 5944 5943 5942 5941 5940 5939 5937 5936 5935 5934 5932 5931 5929 5928 5927 5926 5924 5922 5921 5919 5917 5916 5914 5913 5911 5908 5906 5904 5901 5898 5895
5941 5941 5942 5942 5942 5943 5943 5943 5944 5945 5946 5946 5946 5947 5947 5947 5947 5948 5949 5950 5951 5951 5951 5952 5953 5954 5955 5955 5956 5956 5956 5956 5955 5955 5955 5954 5954 5953 5953 5953 5952 5952 5952 5952 5951 5950 5949 5949 5949 5948 5947 5946 5945 5945 5944 5943 5942 5941 5940 5939 5938 5937 5936 5934 5933 5931 5930 5929 5928 5927 5925 5923 5921 5920 5918 5916 5915 5913 5911 5909 5907 5904 5902 5899 5896
5942 5942 5943 5943 5943 5943 5943 5944 5944 5945 5946 5946 5947 5948 5948 5948 5948 5949 5950 5951 5951 5952 5952 5952 5953 5954 5955 5956 5956 5956 5956 5956 5956 5955 5955 5955 5954 5953 5953 5953 5953 5953 5952 5952 5951 5950 5949 5949 5948 5948 5947 5946 5946 5946 5945 5944 5942 5941 5940 5939 5938 5937 5936 5935 5933 5932 5931 5930 5928 5927 5925 5923 5922 5920 5918 5917 5916 5914 5912 5910 5907 5905 5902 5899 5896
5943 5943 5943 5943 5944 5944 5944 5944 5945 5946 5946 5947 5948 5948 5949 5949 5949 5949 5950 5951 5951 5952 5952 5953 5953 5954 5955 5956 5957 5957 5957 5956 5956 5956 5955 5955 5954 5954 5954 5953 5953 5953 5952 5952 5951 5950 5950 5949 5949 5948 5947 5947 5946 5946 5945 5944 5943 5942 5941 5940 5939 5938 5937 5935 5934 5933 5932 5930 5929 5927 5925 5924 5923 5921 5919 5918 5916 5914 5912 5910 5908 5905 5902 5899 5896
5944 5944 5944 5944 5944 5945 5945 5945 5946 5946 5947 5948 5948 5949 5949 5949 5950 5950 5951 5951 5951 5952 5953 5953 5953 5954 5956 5956 5957 5957 5957 5957 5957 5956 5956 5955 5955 5955 5954 5954 5953 5953 5953 5952 5952 5951 5950 5949 5949 5948 5947 5947 5946 5945 5944 5944 5943 5941 5941 5940 5939 5938 5937 5936 5935 5934 5933 5931 5929 5928 5926 5924 5923 5922 5920 5918 5917 5915 5913 5911 5909 5906 5903 5900 5897
5945 5945 5945 5945 5945 5946 5946 5946 5947 5947 5948 5948 5949 5949 5949 5950 5950 5951 5951 5951 5951 5952 5953 5953 5954 5955 5956 5956 5957 5957 5957 5957 5957 5956 5956 5956 5956 5955 5955 5954 5954 5953 5953 5953 5952 5951 5950 5949 5949 5948 5947 5947 5946 5945 5944 5943 5942 5941 5940 5940 5939 5938 5937 5936 5935 5934 5933 5931 5930 5928 5926 5925 5924 5923 5921 5919 5917 5915 5913 5911 5909 5907 5904 5901 5898
5946 5946 5946 5946 5946 5946 5947 5947 5948 5948 5949 5949 5949 5950 5950 5950 5951 5951 5951 5951 5952 5952 5953 5954 5954 5955 5955 5956 5956 5956 5956 5956 5956 5956 5956 5956 5956 5956 5955 5954 5954 5954 5953 5952 5951 5951 5950 5950 5949 5948 5948 5947 5946 5945 5944 5943 5942 5941 5941 5940 5939 5938 5938 5937 5935 5934 5933 5932 5930 5928 5927 5926 5925 5923 5922 5920 5918 5916 5914 5912 5910 5908 5905 5902 5899
5947 5947 5947 5947 5947 5947 5947 5948 5948 5949 5949 5950 5950 5950 5951 5951 5951 5952 5952 5952 5952 5952 5953 5954 5954 5955 5955 5955 5955 5955 5955 5955 5956 5956 5956 5956 5956 5955 5955 5955 5954 5954 5954 5953 5952 5951 5950 5950 5949 5948 5947 5947 5946 5945 5944 5943 5942 5941 5941 5940 5939 5939 5938 5936 5936 5935 5933 5931 5930 5928 5927 5926 5925 5924 5922 5921 5918 5916 5914 5912 5910 5908 5905 5902 5900
5947 5947 5947 5947 5947 5947 5948 5948 5949 5949 5950 5950 5951 5951 5951 5952 5952 5952 5952 5952 5952 5953 5953 5954 5954 5954 5955 5955 5955 5955 5955 5955 5955 5955 5955 5955 5955 5954 5954 5955 5954 5954 5954 5953 5952 5951 5950 5949 5948 5948 5947 5946 5946 5945 5944 5943 5942 5942 5941 5940 5939 5938 5937 5936 5936 5935 5933 5932 5930 5929 5928 5927 5926 5925 5923 5921 5919 5917 5915 5913 5911 5909 5906 5903 5901
5948 5948 5948 5948 5948 5948 5948 5949 5949 5950 5950 5951 5951 5952 5952 5952 5952 5952 5952 5952 5953 5953 5953 5954 5954 5954 5954 5955 5954 5954 5954 5955 5955 5955 5955 5955 5954 5954 5954 5954 5954 5954 5954 5953 5952 5951 5950 5949 5948 5947 5947 5946 5945 5945 5944 5943 5942 5941 5940 5939 5939 5938 5938 5937 5936 5935 5933 5932 5931 5930 5928 5927 5926 5925 5923 5922 5920 5918 5916 5914 5912 5910 5907 5904 5902
5948 5948 5948 5949 5949 5949 5949 5950 5950 5950 5951 5951 5952 5952 5952 5952 5952 5952 5953 5953 5953 5953 5954 5954 5954 5954 5954 5954 5954 5954 5955 5955 5955 5955 5955 5954 5954 5954 5954 5954 5954 5953 5953 5953 5952 5951 5950 5949 5948 5947 5947 5946 5945 5944 5943 5943 5942 5941 5940 5939 5939 5939 5938 5937 5936 5935 5934 5932 5931 5930 5929 5928 5927 5925 5924 5922 5920 5918 5916 5914 5912 5910 5908 5905 5903
5948 5949 5949 5949 5949 5950 5950 5950 5951 5951 5951 5951 5952 5952 5952 5952 5953 5953 5953 5953 5954 5954 5954 5954 5954 5954 5954 5954 5954 5954 5954 5954 5954 5954 5954 5954 5954 5954 5954 5953 5953 5952 5952 5952 5951 5950 5949 5949 5948 5947 5946 5945 5944 5943 5943 5942 5941 5940 5940 5939 5939 5939 5938 5937 5936 5935 5934 5933 5932 5931 5929 5928 5927 5925 5924 5922 5920 5919 5917 5915 5913 5911 5908 5906 5904
5949 5949 5949 5949 5950 5950 5950 5951 5951 5951 5952 5952 5952 5952 5952 5953 5953 5953 5953 5954 5954 5954 5954 5954 5954 5954 5954 5955 5955 5954 5954 5954 5954 5954 5954 5954 5953 5953 5952 5952 5952 5951 5951 5951 5950 5950 5949 5948 5947 5946 5945 5944 5944 5943 5942 5942 5941 5940 5940 5939 5939 5938 5938 5937 5936 5935 5934 5933 5932 5931 5930 5928 5927 5926 5924 5922 5921 5919 5918 5916 5914 5911 5909 5907 5905
5949 5949 5949 5949 5950 5950 5951 5951 5951 5951 5952 5952 5952 5952 5953 5953 5953 5953 5954 5954 5954 5954 5954 5954 5954 5954 5955 5955 5955 5955 5954 5954 5954 5954 5954 5953 5953 5952 5951 5951 5951 5951 5950 5950 5950 5949 5948 5947 5946 5945 5944 5944 5943 5943 5942 5941 5941 5940 5939 5939 5938 5938 5938 5937 5936 5935 5934 5933 5932 5931 5930 5929 5928 5926 5924 5923 5921 5920 5918 5916 5914 5912 5910 5907 5905
5948 5949 5949 5949 5949 5950 5951 5951 5951 5951 5952 5952 5953 5953 5953 5953 5953 5954 5954 5954 5954 5954 5954 5954 5955 5955 5955 5955 5955 5954 5954 5954 5954 5954 5953 5952 5951 5951 5951 5951 5950 5950 5950 5949 5949 5948 5947 5947 5946 5945 5944 5943 5943 5943 5942 5941 5941 5940 5939 5938 5938 5938 5937 5937 5936 5935 5934 5933 5932 5931 5930 5929 5927 5926 5924 5923 5921 5920 5918 5917 5915 5912 5910 5908 5906
5948 5948 5949 5949 5949 5950 5950 5951 5951 5951 5952 5952 5953 5953 5953 5953 5954 5954 5954 5954 5954 5954 5954 5954 5955 5955 5955 5955 5954 5954 5954 5953 5953 5953 5953 5952 5951 5951 5950 5950 5950 5949 5949 5949 5948 5948 5947 5946 5945 5944 5944 5944 5943 5943 5942 5941 5940 5939 5939 5938 5938 5938 5937 5936 5936 5935 5934 5933 5932 5932 5930 5929 5927 5925 5924 5923 5921 5920 5919 5917 5915 5913 5911 5908 5907
5948 5948 5948 5949 5949 5949 5950 5950 5951 5951 5952 5952 5953 5953 5953 5954 5954 5954 5954 5954 5954 5954 5954 5954 5954 5954 5954 5954 5954 5954 5954 5953 5953 5953 5952 5952 5951 5950 5950 5949 5949 5949 5948 5948 5947 5947 5946 5946 5945 5945 5944 5944 5943 5943 5942 5941 5940 5939 5938 5938 5938 5938 5937 5937 5936 5935 5935 5934 5933 5932 5930 5929 5927 5925 5924 5923 5922 5920 5918 5917 5915 5914 5911 5909 5907
5947 5948 5948 5948 5949 5949 5949 5950 5950 5951 5951 5952 5952 5953 5953 5953 5954 5954 5954 5954 5954 5954 5954 5954 5954 5954 5954 5954 5954 5954 5954 5953 5953 5953 5952 5951 5951 5950 5950 5949 5949 5948 5948 5947 5947 5947 5946 5946 5945 5945 5944 5944 5943 5942 5942 5941 5940 5939 5939 5938 5938 5938 5938 5937 5936 5936 5935 5934 5933 5931 5930 5928 5927 5925 5924 5923 5922 5920 5918 5916 5915 5914 5912 5910 5908
5946 5947 5947 5948 5948 5949 5949 5950 5950 5950 5951 5951 5952 5952 5953 5953 5953 5953 5953 5953 5954 5954 5954 5954 5954 5954 5954 5954 5954 5954 5954 5953 5953 5952 5952 5951 5951 5950 5950 5949 5949 5948 5948 5948 5947 5947 5946 5946 5945 5945 5944 5944 5943 5942 5942 5941 5940 5940 5939 5939 5939 5938 5938 5937 5936 5935 5935 5933 5932 5931 5930 5928 5927 5925 5924 5923 5922 5920 5919 5917 5916 5914 5912 5911 5909
5945 5946 5947 5947 5948 5948 5949 5949 5950 5950 5951 5951 5952 5952 5952 5953 5953 5953 5953 5953 5953 5953 5953 5953 5953 5953 5953 5953 5953 5953 5953 5953 5952 5952 5951 5951 5951 5950 5950 5949 5949 5949 5948 5948 5947 5947 5946 5946 5945 5944 5944 5943 5943 5942 5942 5942 5941 5940 5940 5939 5939 5938 5938 5937 5936 5935 5934 5933 5932 5931 5929 5927 5926 5925 5924 5923 5921 5920 5919 5917 5916 5914 5913 5911 5909
5945 5945 5946 5947 5947 5948 5948 5949 5950 5950 5951 5951 5952 5952 5952 5952 5952 5952 5952 5952 5952 5952 5953 5953 5953 5953 5952 5952 5952 5952 5952 5952 5952 5951 5951 5951 5950 5950 5950 5949 5949 5948 5948 5947 5947 5947 5946 5945 5944 5944 5944 5943 5943 5942 5942 5942 5941 5940 5940 5939 5939 5938 5937 5936 5935 5934 5933 5932 5931 5930 5928 5927 5926 5924 5923 5922 5921 5920 5919 5917 5916 5915 5913 5911 5909
5944 5944 5945 5946 5947 5947 5948 5948 5949 5949 5950 5950 5951 5951 5951 5951 5951 5952 5952 5952 5952 5952 5952 5952 5952 5952 5951 5951 5951 5951 5951 5951 5951 5951 5950 5950 5950 5950 5949 5949 5949 5948 5948 5947 5947 5946 5945 5945 5944 5943 5943 5943 5942 5942 5941 5941 5941 5940 5940 5939 5939 5938 5937 5936 5935 5934 5933 5931 5931 5929 5928 5926 5925 5924 5923 5922 5921 5920 5919 5917 5916 5915 5913 5911 5910
5943 5944 5944 5945 5946 5947 5947 5948 5948 5948 5949 5949 5949 5950 5950 5950 5950 5950 5950 5951 5951 5951 5951 5951 5951 5950 5950 5950 5950 5950 5950 5950 5950 5949 5949 5949 5949 5949 5948 5948 5948 5948 5947 5947 5947 5946 5945 5944 5943 5943 5943 5942 5941 5941 5940 5940 5940 5940 5939 5938 5937 5937 5936 5935 5934 5933 5932 5931 5930 5929 5927 5926 5925 5924 5923 5922 5921 5920 5918 5917 5915 5914 5913 5911 5910
5942 5942 5943 5944 5945 5945 5946 5947 5947 5947 5947 5948 5948 5948 5949 5949 5949 5949 5949 5949 5950 5950 5950 5950 5950 5949 5949 5949 5949 5949 5949 5949 5949 5948 5948 5948 5947 5947 5947 5947 5947 5947 5947 5946 5946 5945 5944 5943 5943 5942 5942 5941 5941 5940 5939 5939 5938 5938 5937 5937 5936 5935 5934 5934 5933 5932 5931 5930 5929 5928 5927 5926 5925 5924 5923 5922 5921 5920 5918 5917 5915 5914 5913 5912 5910
5940 5940 5941 5942 5943 5944 5945 5945 5945 5946 5946 5947 5947 5948 5948 5948 5948 5948 5948 5948 5948 5948 5949 5949 5949 5949 5949 5948 5948 5948 5948 5947 5947 5947 5947 5946 5946 5946 5946 5946 5946 5945 5945 5945 5945 5944 5943 5942 5942 5941 5941 5941 5940 5939 5939 5938 5938 5937 5936 5935 5935 5934 5933 5932 5932 5931 5930 5929 5929 5928 5926 5925 5924 5923 5922 5922 5920 5919 5918 5916 5915 5914 5913 5912 5911
5938 5938 5939 5940 5941 5942 5943 5943 5944 5944 5945 5945 5946 5946 5947 5947 5947 5947 5947 5947 5947 5947 5948 5948 5948 5948 5948 5947 5947 5946 5946 5946 5946 5945 5945 5945 5945 5945 5945 5944 5944 5944 5944 5944 5943 5943 5942 5941 5941 5940 5940 5940 5939 5938 5938 5937 5936 5935 5935 5934 5933 5933 5932 5931 5931 5930 5929 5927 5927 5927 5926 5924 5923 5923 5922 5921 5920 5919 5917 5916 5915 5914 5913 5912 5911
5935 5936 5937 5938 5939 5940 5940 5941 5941 5942 5943 5943 5944 5944 5944 5945 5945 5945 5946 5946 5946 5946 5946 5946 5946 5946 5946 5946 5946 5945 5945 5944 5944 5944 5944 5944 5944 5943 5943 5943 5943 5943 5942 5942 5942 5941 5940 5940 5939 5939 5939 5938 5938 5937 5936 5935 5935 5934 5933 5932 5931 5931 5930 5930 5929 5929 5928 5926 5925 5925 5925 5923 5922 5921 5921 5920 5919 5918 5917 5916 5914 5913 5912 5912 5911
5934 5934 5935 5936 5936 5937 5938 5938 5939 5940 5940 5940 5941 5941 5941 5942 5943 5943 5944 5944 5944 5944 5945 5945 5945 5945 5944 5944 5944 5944 5943 5943 5943 5942 5942 5942 5942 5942 5942 5942 5941 5941 5941 5940 5940 5940 5939 5939 5938 5938 5937 5937 5936 5936 5935 5934 5933 5932 5932 5931 5930 5929 5929 5928 5927 5927 5927 5926 5924 5923 5923 5922 5921 5920 5919 5919 5918 5917 5916 5915 5913 5912 5912 5911 5910
5931 5932 5932 5933 5933 5934 5935 5936 5936 5937 5937 5937 5938 5938 5939 5939 5940 5940 5941 5942 5942 5942 5943 5943 5943 5942 5942 5942 5942 5942 5942 5941 5941 5941 5941 5941 5941 5940 5940 5940 5940 5939 5939 5939 5938 5938 5938 5937 5937 5937 5936 5935 5934 5934 5933 5932 5931 5931 5930 5929 5929 5928 5927 5926 5925 5925 5925 5924 5923 5922 5922 5921 5920 5919 5918 5917 5916 5916 5915 5914 5913 5912 5911 5910 5909
5928 5929 5929 5930 5930 5931 5932 5932 5933 5934 5934 5934 5935 5936 5936 5937 5937 5937 5938 5939 5939 5940 5940 5940 5940 5940 5940 5940 5940 5940 5940 5939 5939 5939 5939 5939 5939 5938 5938 5938 5938 5937 5937 5937 5936 5936 5936 5936 5935 5935 5934 5933 5932 5932 5932 5931 5930 5929 5929 5928 5927 5927 5926 5925 5923 5923 5923 5922 5921 5920 5920 5919 5918 5917 5917 5916 5915 5914 5913 5912 5912 5911 5909 5908 5907
5925 5926 5927 5927 5927 5928 5929 5929 5930 5930 5931 5931 5932 5933 5933 5934 5934 5935 5935 5935 5936 5936 5937 5937 5937 5937 5937 5938 5938 5937 5937 5937 5937 5937 5937 5937 5936 5936 5936 5936 5935 5935 5935 5935 5934 5934 5934 5933 5933 5932 5932 5931 5930 5930 5930 5930 5929 5928 5927 5926 5926 5925 5924 5923 5922 5921 5921 5920 5919 5918 5918 5917 5916 5915 5915 5914 5913 5912 5912 5911 5910 5909 5908 5907 5906
5923 5924 5925 5925 5925 5926 5926 5927 5927 5927 5927 5928 5928 5929 5930 5930 5931 5931 5932 5932 5932 5933 5933 5933 5934 5934 5934 5934 5935 5935 5935 5935 5934 5934 5934 5934 5933 5933 5933 5933 5933 5932 5932 5932 5932 5931 5931 5930 5930 5930 5930 5929 5928 5928 5927 5927 5927 5926 5925 5925 5924 5923 5922 5921 5920 5920 5919 5919 5918 5917 5916 5915 5914 5913 5912 5912 5911 5910 5910 5909 5908 5907 5906 5905 5904
5920 5921 5922 5923 5923 5924 5924 5925 5925 5924 5925 5925 5925 5926 5926 5926 5927 5927 5928 5928 5929 5929 5930 5930 5931 5931 5931 5931 5931 5931 5931 5931 5931 5931 5930 5930 5930 5930 5930 5930 5930 5929 5929 5928 5928 5928 5927 5927 5927 5927 5926 5926 5926 5925 5924 5924 5924 5923 5923 5922 5921 5920 5919 5918 5917 5917 5917 5918 5917 5915 5914 5913 5911 5910 5909 5909 5908 5908 5907 5907 5906 5905 5904 5903 5902
5915 5917 5919 5920 5921 5921 5922 5922 5922 5922 5922 5922 5922 5922 5922 5923 5923 5923 5924 5924 5925 5926 5927 5927 5927 5928 5928 5928 5928 5928 5928 5927 5927 5927 5927 5926 5926 5926 5926 5926 5926 5926 5925 5925 5924 5924 5924 5924 5924 5923 5923 5923 5922 5922 5921 5920 5920 5920 5919 5919 5918 5917 5916 5915 5914 5914 5915 5916 5916 5913 5911 5910 5909 5907 5906 5906 5905 5905 5905 5904 5904 5903 5902 5901 5900
5911 5912 5914 5915 5917 5918 5918 5919 5919 5919 5919 5919 5919 5919 5919 5919 5920 5920 5920 5921 5922 5923 5923 5924 5924 5924 5924 5924 5924 5924 5924 5924 5923 5923 5923 5923 5922 5922 5922 5922 5922 5923 5922 5922 5921 5920 5920 5920 5920 5920 5919 5919 5919 5918 5918 5917 5916 5916 5915 5915 5914 5914 5913 5912 5911 5911 5912 5914 5913 5911 5909 5908 5908 5905 5903 5902 5902 5902 5902 5902 5902 5901 5900 5899 5898
5909 5908 5909 5911 5912 5913 5915 5915 5915 5916 5916 5916 5916 5916 5916 5916 5916 5917 5917 5917 5918 5919 5920 5920 5920 5920 5920 5920 5920 5920 5920 5919 5919 5919 5919 5919 5919 5919 5918 5918 5918 5919 5919 5918 5917 5917 5916 5916 5916 5916 5915 5915 5915 5914 5914 5913 5913 5912 5912 5911 5910 5909 5909 5909 5908 5907 5909 5910 5909 5907 5906 5906 5905 5903 5900 5899 5899 5900 5900 5900 5900 5898 5898 5897 5896
5906 5906 5906 5906 5906 5908 5910 5911 5912 5912 5913 5913 5913 5913 5913 5913 5913 5913 5913 5913 5914 5915 5915 5915 5916 5916 5916 5916 5916 5915 5915 5915 5914 5914 5914 5915 5915 5915 5915 5914 5914 5914 5914 5914 5913 5913 5913 5913 5912 5912 5911 5911 5910 5910 5909 5909 5909 5908 5908 5907 5906 5905 5905 5905 5905 5904 5905 5905 5905 5904 5903 5903 5902 5901 5899 5896 5896 5896 5898 5898 5897 5896 5895 5895 5894